This is the latest recevied weather packets stored in our database for station/object KJ5FA-9. If no packets are shown the sender has not sent any weather packets the latest 10 day(s).
| Time | Temp. | Humidity | Pressure | Rain* | Wind** | Luminosity | Snow |
|---|---|---|---|---|---|---|---|
| 1788525574 | 23.89° C | 94% | 1016.6 hPa | 0 mm | - | - | - |
| 1788524074 | 23.33° C | 94% | 1016.4 hPa | 0 mm | - | - | - |
| 1788522574 | 23.33° C | 93% | 1016.1 hPa | 0 mm | - | - | - |
| 1788521074 | 23.89° C | 93% | 1015.9 hPa | 0 mm | - | - | - |
| 1788519574 | 23.89° C | 91% | 1016 hPa | 0 mm | - | - | - |
| 1788518074 | 24.44° C | 90% | 1015.7 hPa | 0 mm | - | - | - |
| 1788516574 | 24.44° C | 90% | 1015.5 hPa | 0 mm | - | - | - |
| 1788515074 | 24.44° C | 89% | 1015.4 hPa | 0 mm | - | - | - |
| 1788513574 | 24.44° C | 88% | 1015.3 hPa | 0 mm | - | - | - |
| 1788512074 | 24.44° C | 86% | 1015 hPa | 0 mm | - | - | - |
| 1788510574 | 25° C | 85% | 1015.1 hPa | 0 mm | - | - | - |
| 1788509074 | 25° C | 84% | 1015.2 hPa | 0 mm | - | - | - |
| 1788507574 | 25.56° C | 82% | 1015.1 hPa | 0 mm | - | - | - |
| 1788506074 | 25.56° C | 83% | 1014.9 hPa | 0 mm | - | - | - |
| 1788504574 | 26.11° C | 80% | 1015.1 hPa | 0 mm | - | - | - |
| 1788503074 | 26.11° C | 78% | 1014.7 hPa | 0 mm | - | - | - |
| 1788501574 | 26.67° C | 76% | 1015.1 hPa | 0 mm | - | - | - |
| 1788500074 | 27.22° C | 75% | 1014.9 hPa | 0 mm | - | - | - |
| 1788498574 | 27.22° C | 74% | 1014.8 hPa | 0 mm | - | - | - |
| 1788497074 | 27.78° C | 73% | 1014.6 hPa | 0 mm | - | - | - |
| 1788495574 | 28.33° C | 69% | 1014.5 hPa | 0 mm | - | - | - |
| 1788494074 | 28.89° C | 67% | 1014.4 hPa | 0 mm | - | - | - |
| 1788492574 | 30° C | 62% | 1014.5 hPa | 0 mm | - | - | - |
| 1788491074 | 30° C | 60% | 1014.4 hPa | 0 mm | - | - | - |
| 1788489574 | 30.56° C | 59% | 1014.5 hPa | 0 mm | - | - | - |
* Rain latest hour (hover to see other rain measurements)
** Current wind speed in m/s (hover to see current wind gust speed)